Theta_e
321 321 321 321 321 321 321 321 321 320 320 321 322 322 322 322 321 315 309 320 320 333 327 307 306 306 304 303 309 308 301 300 304 307 307 315 312 323 327 323 324 326 324 327 330
320 320 320 320 320 320 320 320 320 320 321 321 321 321 321 322 312 308 322 336 336 332 305 304 304 307 304 302 305 302 298 302 311 312 309 314 313 316 321 320 320 322 329 332 332
319 320 320 320 320 320 320 320 320 320 321 320 320 320 321 320 308 310 337 336 332 327 306 306 307 307 301 302 304 304 304 311 314 316 316 314 315 320 319 316 321 321 324 328 329
319 319 320 319 320 319 320 319 319 320 319 319 319 321 322 314 299 312 340 335 333 312 306 307 307 304 307 308 312 310 314 315 316 317 318 317 323 321 322 321 328 328 330 328 327
318 318 319 319 319 319 319 319 318 318 318 318 320 322 315 303 307 324 343 335 314 307 306 305 304 302 301 308 312 310 313 315 317 322 323 324 321 316 319 327 328 330 329 328 326
317 317 318 318 318 318 318 317 317 317 318 319 321 322 306 299 312 325 315 313 310 306 306 306 304 304 304 307 308 312 314 313 317 321 323 320 316 317 318 323 329 328 327 328 329
317 317 317 317 318 318 317 317 316 317 318 319 321 318 303 303 315 315 313 308 309 310 308 307 308 306 306 311 313 314 309 310 312 315 320 321 315 312 319 320 320 331 330 330 332
317 317 317 317 317 317 317 317 317 317 319 320 321 310 303 309 316 314 311 312 311 311 310 310 309 306 305 311 310 307 304 301 310 315 318 316 306 317 321 318 319 328 330 331 330
317 316 316 317 317 317 316 315 317 318 319 320 309 310 303 317 313 313 310 308 309 309 310 315 309 305 309 305 301 303 297 301 307 316 316 314 309 319 319 317 323 325 328 328 326
317 316 316 316 316 316 314 315 316 315 317 317 314 302 306 309 314 312 310 310 310 310 310 310 305 301 300 300 295 300 299 302 305 312 314 311 311 321 323 321 320 322 325 326 324
317 316 315 315 315 314 308 301 303 301 300 299 303 304 309 314 316 311 313 312 312 309 302 305 301 298 300 303 304 306 304 305 308 314 310 310 311 315 317 318 317 320 321 323 323
316 316 315 315 315 314 305 299 303 302 298 304 304 308 311 312 308 312 315 310 308 301 304 303 299 305 307 304 307 308 306 303 308 312 309 309 308 312 314 317 318 316 322 322 321
314 314 314 315 313 305 300 304 306 301 297 303 306 306 307 309 307 310 314 311 307 304 302 300 305 309 308 305 306 304 305 305 305 309 310 309 305 308 313 317 318 316 317 321 321
314 314 314 314 305 302 301 308 305 304 295 300 304 308 309 308 307 314 316 312 307 303 305 303 307 306 304 306 306 300 309 309 307 301 296 306 292 302 307 310 314 315 316 317 318
313 313 313 312 298 299 302 305 304 308 290 306 303 309 307 307 309 312 318 313 305 306 305 303 304 303 302 305 308 305 311 308 306 301 299 301 295 298 306 305 309 312 314 317 316
313 313 312 304 301 306 307 304 308 296 293 301 302 300 301 305 308 311 311 314 311 306 305 304 308 307 307 308 311 312 307 303 302 298 292 297 297 298 302 305 309 312 315 315 312
313 312 309 309 299 303 305 306 292 291 304 299 298 299 300 302 306 309 307 304 301 298 297 304 306 307 309 307 307 304 298 291 291 292 290 301 299 299 307 311 313 313 309 311 310
311 308 308 309 300 305 306 299 288 299 301 307 302 301 299 303 304 306 305 301 304 303 299 297 298 306 310 304 301 300 298 292 287 288 292 301 296 301 311 314 315 312 309 308 309
307 303 306 309 309 305 303 292 293 301 307 306 300 297 298 302 302 302 301 301 304 305 298 298 300 311 312 308 307 302 297 299 295 296 294 297 302 308 310 311 310 307 307 307 308
302 305 305 310 306 304 298 294 300 308 308 307 297 298 295 299 299 299 301 306 306 308 309 305 299 309 312 311 311 305 305 295 293 288 287 295 298 299 305 308 311 306 306 309 310
307 305 310 311 305 299 290 294 302 308 307 304 302 302 299 298 299 297 300 305 310 312 311 308 303 304 308 305 303 302 298 297 295 296 291 290 295 307 307 310 308 307 307 310 311
301 300 310 304 295 292 292 299 304 306 306 304 306 306 304 304 298 299 300 304 316 315 308 310 303 299 302 307 311 303 300 298 293 292 295 295 295 309 309 311 310 309 308 309 309
296 299 309 304 293 290 294 300 305 304 304 304 304 307 308 303 298 301 305 314 316 313 309 307 300 295 297 301 304 302 302 300 298 296 294 295 296 312 310 311 311 307 307 308 309
300 298 303 299 296 294 294 297 301 311 309 309 306 306 303 302 303 304 307 315 317 314 318 311 301 298 294 297 301 302 304 303 299 294 295 297 300 306 308 309 308 305 305 307 309
299 297 305 301 297 295 295 297 300 301 308 305 304 305 301 298 300 303 309 311 313 316 313 304 299 301 302 306 306 305 303 303 299 301 298 301 304 307 308 309 309 308 305 306 307
300 304 306 305 306 300 296 294 300 304 306 304 301 306 305 299 302 300 306 304 304 309 306 305 298 302 302 308 307 305 305 304 305 306 306 306 303 310 311 310 311 308 307 307 308
304 303 308 303 305 294 294 297 303 306 306 309 306 304 304 309 308 307 307 307 306 306 306 304 301 298 296 305 303 299 303 307 307 309 307 302 306 310 310 311 310 308 308 308 308
Wind_Speed
12 12 11 12 13 13 12 12 14 14 15 16 17 16 15 15 17 3 5 8 5 10 6 4 3 3 2 3 5 5 6 3 7 6 5 1 5 6 7 7 7 5 6 5 2
13 13 13 12 13 13 13 12 14 14 15 16 17 17 15 13 2 4 8 5 2 4 2 2 3 3 1 2 1 5 6 12 9 5 3 8 6 5 5 7 7 7 8 6 5
12 12 13 13 13 14 14 12 14 15 14 15 17 17 15 9 2 3 4 7 5 3 2 2 1 3 3 2 2 4 5 7 3 6 10 5 6 9 8 7 4 11 7 6 6
12 13 13 13 14 14 15 13 14 16 15 16 17 18 19 2 4 3 8 7 5 4 2 4 7 6 6 4 2 6 7 6 7 15 9 8 15 28 24 12 4 7 8 6 10
12 14 14 14 14 15 15 12 13 15 14 15 16 17 5 4 5 1 8 6 3 1 2 3 5 3 4 3 4 9 5 10 21 24 20 27 27 29 32 20 11 7 7 6 8
13 14 15 14 14 14 15 13 12 13 13 12 14 17 3 2 1 6 5 3 3 2 1 5 3 1 4 1 7 5 9 10 15 16 16 28 17 13 18 17 8 4 2 6 8
12 14 15 14 14 15 15 14 12 12 13 10 11 4 2 9 4 4 4 3 4 4 2 3 5 3 4 6 5 10 12 8 7 6 8 1 11 10 19 13 11 8 7 8 8
12 14 15 15 15 16 17 16 14 13 12 8 5 1 7 3 1 3 3 6 5 6 4 5 4 1 4 4 6 7 5 5 5 3 6 4 5 6 11 11 13 8 11 11 9
13 13 14 15 15 16 18 18 16 11 6 3 1 2 9 10 3 3 6 3 2 2 4 2 3 3 6 6 5 7 2 7 2 8 2 3 2 13 9 10 8 3 10 11 8
13 14 15 15 15 16 21 11 2 2 2 3 2 3 5 4 4 2 3 2 1 4 6 7 6 5 5 5 3 3 5 4 4 3 4 6 3 7 12 10 5 2 6 9 8
14 14 14 14 13 13 12 4 7 6 3 4 5 4 6 7 4 4 4 4 1 6 4 3 7 5 5 10 4 8 6 7 2 2 8 8 5 2 3 2 4 4 5 8 7
13 15 15 13 12 10 2 5 2 2 9 6 6 6 6 2 4 1 7 3 3 3 3 9 4 7 8 3 9 10 15 2 1 5 7 4 4 1 4 4 1 4 7 8 7
12 13 14 13 11 2 1 5 1 3 1 8 5 4 4 7 4 4 7 3 4 4 3 5 10 5 3 6 11 3 10 9 7 8 9 7 2 4 4 4 2 2 2 4 10
12 12 14 19 3 4 6 6 8 3 5 7 3 7 4 4 4 6 5 5 4 3 3 3 5 5 9 1 5 4 6 7 13 5 3 3 4 5 4 7 6 8 4 6 8
11 11 10 10 3 2 6 9 7 5 3 0 3 2 1 6 2 2 4 4 5 3 4 9 7 3 2 7 5 4 11 7 4 5 5 2 3 1 2 5 7 7 7 7 8
9 10 8 2 1 6 9 8 5 7 2 4 3 2 3 1 3 2 3 3 2 4 2 7 4 3 1 7 7 11 8 8 4 3 4 5 3 5 5 7 5 3 7 7 10
10 7 2 2 4 5 6 6 6 3 5 1 3 1 2 2 0 1 5 4 4 4 4 7 5 3 7 13 4 8 7 3 3 5 4 4 2 7 6 5 6 8 7 10 9
12 4 6 5 1 6 5 7 1 3 6 6 3 3 3 2 1 1 3 1 2 5 3 2 7 4 4 3 9 5 7 6 3 3 3 4 2 4 5 6 3 8 10 8 9
12 2 3 4 5 3 7 3 6 4 5 7 3 4 2 1 2 3 2 5 6 6 7 4 5 5 3 2 6 3 4 4 9 3 3 3 6 3 6 4 7 8 6 7 6
2 3 4 1 5 6 7 5 4 5 7 6 2 3 5 2 2 2 1 4 4 8 5 6 3 2 3 4 7 8 5 4 4 4 1 3 4 6 5 7 7 8 8 8 8
4 4 4 5 4 7 4 7 6 6 5 4 3 0 3 2 5 3 4 4 2 4 5 6 4 3 0 1 5 4 1 6 6 4 5 1 7 6 11 11 11 10 12 13 11
2 2 3 2 5 1 3 5 6 4 4 5 3 1 2 2 5 6 5 4 3 5 7 2 6 3 3 1 1 2 4 6 7 3 2 4 8 3 9 9 10 8 12 10 8
2 3 3 5 2 2 6 5 4 3 2 4 5 3 1 2 3 6 5 3 2 3 7 5 2 4 9 8 3 3 4 4 5 4 5 6 7 3 2 6 7 10 11 10 9
3 2 5 5 1 6 2 6 5 3 6 6 5 2 2 5 4 3 2 3 3 4 7 8 3 7 8 8 3 2 4 5 5 4 5 6 3 2 5 8 7 8 9 10 10
3 3 3 2 3 4 5 3 5 5 3 3 2 3 0 3 5 3 2 1 5 2 3 5 4 3 2 5 3 4 4 7 6 6 7 6 9 9 10 13 15 11 8 10 10
4 2 3 2 3 2 6 5 7 5 3 6 3 2 3 3 4 1 3 1 3 3 3 2 2 1 2 6 2 2 1 7 2 4 4 6 4 7 6 5 6 10 12 13 13
1 2 5 3 3 4 4 6 2 0 7 10 7 3 3 4 6 5 3 2 2 6 3 3 5 4 3 4 5 5 3 4 4 4 8 6 10 6 5 9 10 10 15 16 13
Wind_Direction
322 323 324 319 314 315 322 325 319 324 319 316 313 311 314 316 312 156 241 214 111 129 156 159 183 185 93 186 169 135 75 197 173 155 218 42 77 13 11 62 43 356 82 92 90
323 321 317 313 315 317 320 326 320 320 317 315 312 311 316 326 309 237 247 102 169 131 191 82 144 223 82 123 343 101 133 198 184 170 143 67 41 112 56 34 39 52 53 79 72
317 315 314 317 319 319 317 327 319 319 318 315 313 311 315 322 331 283 91 146 121 195 182 124 259 147 83 143 157 144 173 184 142 80 54 102 56 44 102 55 21 116 134 74 38
319 319 315 320 319 318 317 325 321 316 318 316 314 314 317 178 97 297 128 142 128 212 112 62 345 52 51 56 148 98 31 39 61 53 56 46 71 55 31 17 14 60 58 63 59
320 318 318 318 318 319 313 319 315 311 314 314 316 322 344 355 259 244 127 130 127 241 78 83 43 32 42 28 2 43 36 55 86 80 81 81 79 60 34 3 359 320 58 80 79
319 319 316 317 321 316 311 313 307 305 305 313 319 318 352 354 342 141 132 137 147 158 249 128 118 36 97 295 70 96 83 80 81 96 98 98 86 100 36 356 283 288 226 108 82
322 316 317 321 319 315 311 306 299 294 297 308 319 322 15 233 99 130 173 220 170 177 253 143 151 111 143 81 155 110 103 80 113 150 151 114 33 119 129 209 254 176 161 97 89
320 315 318 319 322 319 311 300 290 283 288 289 313 285 252 238 203 262 174 283 202 212 202 169 189 154 92 110 51 118 77 107 9 75 331 91 169 212 150 198 256 180 134 108 90
317 315 320 323 324 319 306 301 292 279 243 246 0 48 277 319 281 231 162 222 315 225 221 184 124 85 58 98 33 358 139 105 77 350 164 104 149 204 192 214 240 110 119 114 117
321 322 321 321 322 320 313 297 287 175 158 185 253 4 288 305 298 248 185 159 303 325 8 46 51 65 25 73 238 140 111 56 94 310 47 77 107 170 173 232 259 115 123 143 142
323 321 320 320 321 328 346 8 8 353 66 224 242 240 262 288 256 213 146 116 83 39 25 23 49 298 234 216 134 116 109 119 174 198 70 73 81 238 284 212 248 142 154 169 153
322 322 320 314 311 323 334 54 342 134 308 243 248 271 272 267 305 250 122 145 117 88 9 14 314 287 278 127 109 101 108 49 12 87 89 102 92 313 278 268 242 173 192 172 142
320 318 318 312 310 350 297 243 78 279 211 296 214 223 219 140 231 257 134 131 100 71 72 154 250 307 127 119 120 171 148 186 147 109 53 114 358 289 295 305 242 263 67 138 168
323 327 330 315 347 314 303 291 330 186 52 283 256 269 161 200 283 212 179 128 38 136 161 266 284 320 122 184 119 134 152 136 130 93 179 192 281 210 229 271 254 249 232 195 167
325 332 344 3 279 358 294 321 302 62 33 211 232 229 168 148 235 242 160 51 156 142 78 257 295 356 103 213 150 133 109 128 97 85 115 345 110 203 96 251 234 233 215 193 172
318 323 338 319 296 252 305 314 48 37 333 335 209 166 93 312 332 353 138 94 139 107 3 262 259 125 220 27 114 125 82 50 63 81 48 308 91 303 215 203 209 198 216 166 168
310 300 277 325 257 313 330 37 38 123 327 284 213 120 114 164 242 45 138 160 144 85 346 332 329 316 127 75 331 78 69 29 2 13 216 311 61 227 249 219 183 177 174 167 147
313 292 215 226 18 9 40 46 140 258 257 283 146 96 167 171 192 123 82 161 74 92 103 116 350 6 352 135 175 172 145 147 230 185 261 331 293 275 230 166 156 156 162 137 150
311 302 305 272 182 113 70 59 220 222 291 313 40 96 272 215 111 64 180 189 202 161 145 141 293 299 342 98 126 172 38 165 107 62 79 279 297 336 73 121 122 145 137 150 150
47 11 280 271 149 65 75 240 258 235 332 339 113 148 204 214 123 134 119 244 201 193 146 200 113 314 294 50 19 112 155 40 23 126 225 285 273 237 186 174 174 151 166 178 173
51 26 268 194 69 49 157 239 279 268 11 356 331 316 175 199 183 159 217 275 193 150 116 132 118 257 97 84 176 35 45 51 108 111 145 220 260 221 196 187 181 174 172 183 183
81 35 309 50 58 34 166 203 292 308 353 306 270 278 255 175 202 196 219 242 95 159 145 170 132 150 233 79 184 137 162 129 116 219 127 143 275 293 229 194 162 166 178 184 182
99 258 323 83 123 299 290 275 256 302 251 302 296 241 266 270 153 163 203 308 169 121 158 181 22 53 349 354 349 180 161 101 108 85 190 136 260 5 213 186 167 164 177 176 171
84 23 327 48 107 138 346 274 272 271 255 201 244 138 355 16 352 123 149 360 48 81 85 85 114 153 183 210 172 207 159 165 125 116 175 221 239 226 223 184 178 180 174 167 170
51 247 201 253 278 198 165 272 310 316 285 295 294 103 73 13 17 40 48 7 30 41 92 103 138 176 220 264 207 236 182 179 169 175 146 223 189 206 205 197 192 174 150 157 177
138 130 -0 263 308 194 169 247 228 253 229 303 224 238 145 180 180 274 139 163 177 8 84 25 176 121 339 326 303 65 246 157 121 109 58 142 263 204 180 92 156 182 172 181 189
299 357 108 277 335 105 219 248 285 24 281 225 232 152 203 229 199 231 206 231 173 155 150 99 120 82 245 334 345 353 187 178 142 154 139 168 224 157 171 203 210 181 187 193 188